This is the latest recevied weather packets stored in our database for station/object K5DLF-13. If no packets are shown the sender has not sent any weather packets the latest 10 day(s).
| Time | Temp. | Humidity | Pressure | Rain* | Wind** | Luminosity | Snow |
|---|---|---|---|---|---|---|---|
| 1777062282 | 27.78° C | 80% | 1004.8 hPa | 0 mm | - | 236 W/m² | - |
| 1777061982 | 27.78° C | 79% | 1004.9 hPa | 0 mm | - | 192 W/m² | - |
| 1777061682 | 27.78° C | 80% | 1004.9 hPa | 0 mm | - | 290 W/m² | - |
| 1777061382 | 27.78° C | 79% | 1005 hPa | 0 mm | - | 330 W/m² | - |
| 1777061082 | 27.78° C | 79% | 1005 hPa | 0 mm | - | 302 W/m² | - |
| 1777060782 | 28.33° C | 80% | 1005.1 hPa | 0 mm | - | 315 W/m² | - |
| 1777060482 | 28.33° C | 79% | 1005.1 hPa | 0 mm | - | 265 W/m² | - |
| 1777060182 | 28.33° C | 80% | 1005.1 hPa | 0 mm | - | 281 W/m² | - |
| 1777059882 | 28.33° C | 81% | 1005.1 hPa | 0 mm | - | 438 W/m² | - |
| 1777059582 | 27.78° C | 81% | 1005.1 hPa | 0 mm | - | 603 W/m² | - |
| 1777059282 | 28.33° C | 79% | 1005.3 hPa | 0 mm | - | 309 W/m² | - |
| 1777058982 | 28.33° C | 79% | 1005.2 hPa | 0 mm | - | 316 W/m² | - |
| 1777058682 | 28.33° C | 79% | 1005.3 hPa | 0 mm | - | 197 W/m² | - |
| 1777058382 | 28.33° C | 80% | 1005.4 hPa | 0 mm | - | 578 W/m² | - |
| 1777058082 | 28.33° C | 81% | 1005.5 hPa | 0 mm | - | 571 W/m² | - |
| 1777057782 | 28.33° C | 80% | 1005.5 hPa | 0 mm | - | 397 W/m² | - |
| 1777057482 | 28.33° C | 80% | 1005.5 hPa | 0 mm | - | 418 W/m² | - |
| 1777057182 | 28.33° C | 80% | 1005.5 hPa | 0 mm | - | 445 W/m² | - |
| 1777056882 | 28.33° C | 81% | 1005.7 hPa | 0 mm | - | 373 W/m² | - |
| 1777056582 | 27.78° C | 80% | 1005.7 hPa | 0 mm | - | 478 W/m² | - |
| 1777056282 | 28.33° C | 81% | 1005.7 hPa | 0 mm | - | 308 W/m² | - |
| 1777055982 | 27.78° C | 81% | 1005.8 hPa | 0 mm | - | 441 W/m² | - |
| 1777055682 | 27.78° C | 82% | 1005.8 hPa | 0 mm | - | 615 W/m² | - |
| 1777055382 | 27.78° C | 83% | 1005.9 hPa | 0 mm | - | 536 W/m² | - |
| 1777055082 | 27.78° C | 80% | 1005.9 hPa | 0 mm | - | 183 W/m² | - |
* Rain latest hour (hover to see other rain measurements)
** Current wind speed in m/s (hover to see current wind gust speed)